DISCUS EPBY-EPBY

Flight info

Callsign DISCUS
Flight time 0h 10m
Altitude 6500
Route TRAFFIC PATERNS RWY 26R EPBY/CTR THERMAL FLIGHT
Aircraft DIS2/L-GVYS/S

Departure

Time 2026-05-06 16:24
Airport Ignacy Jan Paderewski Bydgoszcz Airport (EPBY)

Arrival

Time 2026-05-06 16:34
Airport Ignacy Jan Paderewski Bydgoszcz Airport (EPBY)
Time Latitude Longitude Altitude Speed Heading
2026-05-06 16:21 53.10571 17.96886 217 ft 0 kts 274°
2026-05-06 16:24 53.10607 17.96291 1293 ft 57 kts 274°
2026-05-06 16:24 53.10630 17.95870 1636 ft 51 kts 277°
2026-05-06 16:25 53.10517 17.95334 1670 ft 58 kts 154°
2026-05-06 16:25 53.10629 17.95764 1679 ft 54 kts 333°
2026-05-06 16:25 53.10525 17.95389 1676 ft 62 kts 178°
2026-05-06 16:25 53.10466 17.95919 1682 ft 63 kts 355°
2026-05-06 16:26 53.10505 17.95623 1696 ft 58 kts 207°
2026-05-06 16:26 53.10436 17.96054 1715 ft 59 kts 356°
2026-05-06 16:26 53.10335 17.96036 1736 ft 64 kts 72°
2026-05-06 16:26 53.10545 17.96169 1717 ft 52 kts 311°
2026-05-06 16:27 53.10609 17.95602 1708 ft 51 kts 269°
2026-05-06 16:27 53.10564 17.95017 1736 ft 51 kts 261°
2026-05-06 16:27 53.10524 17.94425 1709 ft 50 kts 265°
2026-05-06 16:27 53.10785 17.94165 1676 ft 58 kts
2026-05-06 16:28 53.11188 17.94222 1647 ft 57 kts 358°
2026-05-06 16:28 53.11580 17.94261 1665 ft 57 kts 356°
2026-05-06 16:28 53.11867 17.94693 1622 ft 66 kts 88°
2026-05-06 16:28 53.11818 17.95449 1612 ft 65 kts 96°
2026-05-06 16:29 53.11784 17.96183 1614 ft 63 kts 65°
2026-05-06 16:29 53.12010 17.96031 1597 ft 56 kts 236°
2026-05-06 16:29 53.11843 17.96333 1565 ft 60 kts 17°
2026-05-06 16:29 53.11774 17.96158 1527 ft 61 kts 122°
2026-05-06 16:30 53.11912 17.96837 1427 ft 70 kts 54°
2026-05-06 16:30 53.12099 17.97295 1398 ft 71 kts 50°
2026-05-06 16:30 53.12535 17.97989 1371 ft 62 kts 11°
2026-05-06 16:30 53.12939 17.98130 1368 ft 56 kts
2026-05-06 16:31 53.13311 17.98338 1328 ft 60 kts 40°
2026-05-06 16:31 53.13624 17.98830 1263 ft 65 kts 35°
2026-05-06 16:31 53.14018 17.99215 1205 ft 66 kts 25°
2026-05-06 16:31 53.14418 17.99569 1181 ft 65 kts 24°
2026-05-06 16:32 53.14835 17.99896 1117 ft 68 kts 21°
2026-05-06 16:32 53.15233 17.99999 1139 ft 56 kts 304°
2026-05-06 16:32 53.15029 17.99683 1121 ft 59 kts 146°
2026-05-06 16:32 53.15059 18.00244 1090 ft 55 kts 10°
2026-05-06 16:33 53.15053 17.99856 1055 ft 58 kts 200°
2026-05-06 16:33 53.14630 17.99744 971 ft 64 kts 189°
2026-05-06 16:33 53.14187 17.99673 933 ft 61 kts 189°
2026-05-06 16:34 53.13334 17.99518 885 ft 58 kts 200°
2026-05-06 16:34 53.12960 17.99269 859 ft 55 kts 211°
2026-05-06 16:34 53.12724 17.98947 834 ft 45 kts 285°
2026-05-06 16:34 53.13009 17.99070 827 ft 66 kts 81°
2026-05-06 16:35 53.12755 17.99269 848 ft 46 kts 251°
2026-05-06 16:35 53.12960 17.99163 864 ft 57 kts 58°
2026-05-06 16:35 53.12765 17.99497 854 ft 45 kts 227°
2026-05-06 16:35 53.12860 17.99170 845 ft 53 kts
2026-05-06 16:36 53.12822 17.99654 824 ft 57 kts 176°
2026-05-06 16:36 53.12656 17.99296 858 ft 47 kts 305°
2026-05-06 16:36 53.12856 17.99597 854 ft 61 kts 118°
2026-05-06 16:36 53.12571 17.99612 816 ft 48 kts 265°
2026-05-06 16:37 53.12820 17.99496 820 ft 60 kts 52°
2026-05-06 16:37 53.12634 17.99935 818 ft 50 kts 199°
2026-05-06 16:37 53.12372 17.99577 824 ft 49 kts 229°
2026-05-06 16:37 53.12140 17.99231 830 ft 47 kts 232°
2026-05-06 16:38 53.11882 17.98863 790 ft 49 kts 227°
2026-05-06 16:38 53.11587 17.98534 743 ft 56 kts 214°
2026-05-06 16:38 53.11176 17.98418 687 ft 68 kts 171°
2026-05-06 16:38 53.10815 17.98234 612 ft 55 kts 249°
2026-05-06 16:39 53.10738 17.97652 481 ft 45 kts 268°
2026-05-06 16:39 53.10705 17.97132 324 ft 51 kts 270°
2026-05-06 16:39 53.10676 17.96651 217 ft 17 kts 264°
2026-05-06 16:39 53.10675 17.96633 217 ft 0 kts 265°
2026-05-06 16:40 53.10658 17.96398 602 ft 44 kts 268°
2026-05-06 16:41 53.10627 17.95790 1315 ft 55 kts 270°
2026-05-06 16:41 53.10707 17.95289 1278 ft 52 kts 352°
2026-05-06 16:41 53.11009 17.95693 1172 ft 64 kts 49°
2026-05-06 16:41 53.11265 17.96306 1127 ft 67 kts 53°
2026-05-06 16:42 53.11502 17.96962 1101 ft 65 kts 57°
2026-05-06 16:42 53.11725 17.97622 1050 ft 67 kts 55°
2026-05-06 16:42 53.11956 17.98288 1008 ft 65 kts 54°
2026-05-06 16:42 53.12060 17.98978 989 ft 68 kts 123°
2026-05-06 16:43 53.11780 17.98818 953 ft 52 kts 295°
2026-05-06 16:43 53.12062 17.98978 933 ft 69 kts 81°
2026-05-06 16:43 53.11763 17.99243 917 ft 54 kts 242°
2026-05-06 16:43 53.11956 17.99062 867 ft 66 kts 54°
2026-05-06 16:44 53.12177 17.99339 828 ft 51 kts 271°
2026-05-06 16:44 53.11926 17.99495 790 ft 66 kts 74°
2026-05-06 16:44 53.12132 17.99490 806 ft 53 kts 229°
2026-05-06 16:44 53.11956 17.99888 841 ft 59 kts 46°
2026-05-06 16:45 53.12126 17.99699 853 ft 54 kts 226°
2026-05-06 16:45 53.11924 18.00092 919 ft 60 kts 55°
2026-05-06 16:45 53.12113 17.99984 880 ft 57 kts 233°
2026-05-06 16:45 53.11901 18.00327 910 ft 59 kts 52°
2026-05-06 16:46 53.12029 18.00126 897 ft 55 kts 213°
2026-05-06 16:46 53.11853 18.00527 905 ft 55 kts 36°
2026-05-06 16:46 53.12073 18.00317 908 ft 43 kts 290°
2026-05-06 16:46 53.12154 17.99856 901 ft 42 kts 284°
2026-05-06 16:47 53.12207 17.99406 905 ft 39 kts 281°
2026-05-06 16:47 53.12239 17.98930 873 ft 42 kts 282°
2026-05-06 16:47 53.12366 17.98510 833 ft 41 kts 318°
2026-05-06 16:47 53.12653 17.98681 765 ft 61 kts 61°
2026-05-06 16:48 53.12429 17.99069 776 ft 54 kts 232°
2026-05-06 16:48 53.12613 17.98851 782 ft 62 kts 37°
2026-05-06 16:48 53.12463 17.99330 793 ft 58 kts 208°
2026-05-06 16:48 53.12146 17.99029 825 ft 52 kts 219°
2026-05-06 16:49 53.11861 17.98685 768 ft 51 kts 245°
2026-05-06 16:49 53.11764 17.98156 743 ft 47 kts 260°
2026-05-06 16:49 53.11619 17.97631 703 ft 52 kts 251°
2026-05-06 16:49 53.11495 17.97107 767 ft 46 kts 259°
2026-05-06 16:50 53.11361 17.96621 839 ft 47 kts 250°
2026-05-06 16:50 53.11203 17.96154 863 ft 45 kts 253°
2026-05-06 16:50 53.11183 17.95650 869 ft 44 kts 284°
2026-05-06 16:50 53.11148 17.95144 825 ft 57 kts 224°
2026-05-06 16:51 53.10705 17.95140 812 ft 74 kts 156°
2026-05-06 16:51 53.10569 17.95909 496 ft 80 kts 86°
2026-05-06 16:51 53.10588 17.96772 217 ft 47 kts 75°
2026-05-06 16:51 53.10583 17.96911 217 ft 0 kts 97°